TimeCDT,TemperatureF,Dew PointF,Humidity,Sea Level PressureIn,VisibilityMPH,Wind Direction,Wind SpeedMPH,Gust SpeedMPH,PrecipitationIn,Events,Conditions,WindDirDegrees,DateUTC
12:55 AM,42.1,24.1,49,29.75,10.0,West,4.6,-,N/A,,Clear,260,2013-04-15 05:55:00
1:55 AM,44.1,23.0,43,29.75,10.0,SW,3.5,-,N/A,,Clear,230,2013-04-15 06:55:00
2:55 AM,36.0,26.1,67,29.72,10.0,NNW,8.1,-,N/A,,Partly Cloudy,340,2013-04-15 07:55:00
3:55 AM,37.9,25.0,60,29.75,10.0,West,5.8,-,N/A,,Clear,280,2013-04-15 08:55:00
4:55 AM,37.9,26.1,62,29.79,10.0,WSW,3.5,-,N/A,,Mostly Cloudy,250,2013-04-15 09:55:00
5:55 AM,39.9,28.0,63,29.82,10.0,West,5.8,-,N/A,,Overcast,280,2013-04-15 10:55:00
6:55 AM,39.9,28.0,63,29.87,10.0,North,11.5,-,N/A,,Overcast,350,2013-04-15 11:55:00
7:55 AM,37.9,26.1,62,29.91,10.0,NNW,11.5,-,N/A,,Overcast,340,2013-04-15 12:55:00
8:55 AM,37.9,24.1,57,29.93,10.0,North,11.5,-,N/A,,Overcast,350,2013-04-15 13:55:00
9:55 AM,39.9,23.0,51,29.92,10.0,North,12.7,-,N/A,,Overcast,350,2013-04-15 14:55:00
10:55 AM,43.0,23.0,45,29.93,10.0,North,12.7,-,N/A,,Overcast,10,2013-04-15 15:55:00
11:55 AM,44.1,19.0,37,29.96,10.0,North,16.1,-,N/A,,Overcast,10,2013-04-15 16:55:00
12:55 PM,45.0,23.0,42,29.96,10.0,North,11.5,20.7,N/A,,Overcast,360,2013-04-15 17:55:00
1:55 PM,46.9,24.1,41,29.93,10.0,North,13.8,-,N/A,,Overcast,10,2013-04-15 18:55:00
2:55 PM,48.9,23.0,36,29.92,10.0,North,12.7,20.7,N/A,,Overcast,10,2013-04-15 19:55:00
3:55 PM,48.9,23.0,36,29.90,10.0,North,11.5,-,N/A,,Overcast,10,2013-04-15 20:55:00
4:55 PM,50.0,23.0,35,29.89,10.0,NNE,12.7,-,N/A,,Overcast,20,2013-04-15 21:55:00
5:55 PM,48.9,23.0,36,29.91,10.0,NNE,13.8,-,N/A,,Overcast,30,2013-04-15 22:55:00
6:55 PM,46.9,26.1,44,29.94,10.0,NNE,11.5,-,N/A,,Overcast,20,2013-04-15 23:55:00
7:55 PM,46.9,26.1,44,29.98,10.0,NNE,11.5,-,N/A,,Overcast,20,2013-04-16 00:55:00
8:55 PM,45.0,28.0,52,30.01,10.0,NE,10.4,-,N/A,,Overcast,40,2013-04-16 01:55:00
9:55 PM,44.1,28.0,53,30.04,10.0,NE,12.7,-,N/A,,Overcast,40,2013-04-16 02:55:00
10:55 PM,41.0,28.0,60,30.04,10.0,NE,9.2,-,N/A,,Clear,50,2013-04-16 03:55:00
11:55 PM,39.0,28.0,65,30.04,10.0,NE,6.9,-,N/A,,Clear,50,2013-04-16 04:55:00